Location: Cucq
(50.4773°N, 1.6202°E)
Time: 17:35:21
(UTC+00:00)

SL-16 R/B - Pass Details

Date: 07 August 2020
Orbit: 841 x 849 km, 71.0° (Epoch: 23 September)

Event Time Altitude Azimuth Distance (km) Brightness Sun altitude
Rises 00:13:43 0° 332° (NNW) 3,425 6.3 -23.1°
Reaches altitude 10° 00:16:40 10° 346° (NNW) 2,486 5.6 -23.1°
Maximum altitude 00:21:15 24° 40° (NE) 1,694 4.3 -23.0°
Drops below altitude 10° 00:25:48 10° 93° (E) 2,476 4.7 -22.9°
Sets 00:28:44 0° 107° (ESE) 3,408 5.3 -22.9°
